"Pseudo-MPEC" for P12pEtX

Created 2026 Sep 5 10:35:11 UT using Find_Orb

Click here for an explanation of pseudo-MPECs

 
 Astrometry: 
     P12pEtX 0C2026 08 14.58791202 15 00.812-05 57 37.04   ~94N5 21.83wXNEOCPF51
     P12pEtX 0C2026 08 14.59554302 15 01.402-05 57 39.18   ~94N5 21.80wXNEOCPF51
     P12pEtX 0C2026 08 14.60322102 15 01.993-05 57 41.26   ~94N5 21.43wXNEOCPF51
     P12pEtX*0C2026 09 04.59189902 37 49.722-08 20 45.60   ~94Lo 21.20wXNEOCPF51
     P12pEtX 0C2026 09 04.60621902 37 50.346-08 20 52.93   ~94Lo 21.26wXNEOCPF51
     P12pEtX 0C2026 09 04.62036002 37 50.964-08 21 00.09   ~94Lo 20.94wXNEOCPF51

Station data:
(F51) Pan-STARRS 1, Haleakala  (N20.707234 W156.255910)  US/Hawaii.
   Observers J. Herman, T. Lowe, P. Minguez, A. Schultz, I. Smith. Measurers
   K. Chambers, T. de Boer, J. Fairlamb, H. Gao, M. Huber, C.-C. Lin, E.
   Magnier, Y. Ramanjooloo, R. Wainscoat, R. Weryk. 1.8-m Ritchey-Chrétien +
   CCD.

Orbital elements:  P12pEtX
   Perihelion 2026 Oct 7.970161 +/- 38.7 TT = 23:17:01.9 (JD 2461321.470161)
Epoch 2026 Sep  4.0 TT = JDT 2461287.5   Earth MOID: 0.8842      AutoNEOCP
M 351.343321058 +/- 11              (J2000 ecliptic)
n   0.254831845 +/- 0.0638          Peri.  268.653633 +/- 20
a   2.463959599 +/- 0.411           Node   114.359457 +/- 4.2
e   0.25991446 +/- 0.0899           Incl.   13.439773 +/- 0.6
P   3.86768                H 18.38  G  0.15   U 10.9
q 1.823540849 +/- 0.0826    Q 3.104378350 +/- 0.74
From 6 observations 2026 Aug. 14-Sept. 4; mean residual 0".08
Residuals in arcseconds: 
260814 F51  .11+  .11-    260814 F51  .12-  .14+    260904 F51  .01-  .02-    
260814 F51  .01+  .02-    260904 F51  .05+  .08-    260904 F51  .04-  .10+    

Ephemerides (geocentric):
Date (UTC) HH   RA             Dec           delta  r     elong  mag " sig PA
---- --------  ------------   ------------  ------ ------ -----  --- --------
2026 09 05 11  02 38 29.798   -08 28 11.90  1.0630 1.8357 124.8 21.0 14.8  56
2026 09 05 12  02 38 31.687   -08 28 33.72  1.0627 1.8356 124.8 21.0 15.2  55
2026 09 05 13  02 38 33.573   -08 28 55.55  1.0624 1.8356 124.9 21.0 15.5  55
2026 09 05 14  02 38 35.456   -08 29 17.40  1.0621 1.8356 124.9 21.0 15.9  54
2026 09 05 15  02 38 37.335   -08 29 39.26  1.0618 1.8356 124.9 21.0 16.3  53
2026 09 05 16  02 38 39.210   -08 30 01.13  1.0615 1.8355 124.9 21.0 16.8  53
2026 09 05 17  02 38 41.083   -08 30 23.02  1.0612 1.8355 125.0 21.0 17.2  52
2026 09 05 18  02 38 42.951   -08 30 44.93  1.0610 1.8355 125.0 21.0 17.6  52
2026 09 05 19  02 38 44.816   -08 31 06.84  1.0607 1.8354 125.0 21.0 18.0  51
2026 09 05 20  02 38 46.678   -08 31 28.78  1.0604 1.8354 125.1 21.0 18.4  51
2026 09 05 21  02 38 48.536   -08 31 50.72  1.0601 1.8354 125.1 21.0 18.8  50
2026 09 05 22  02 38 50.391   -08 32 12.68  1.0598 1.8353 125.1 21.0 19.3  50
2026 09 05 23  02 38 52.242   -08 32 34.66  1.0595 1.8353 125.1 21.0 19.7  50
2026 09 06 00  02 38 54.090   -08 32 56.65  1.0592 1.8353 125.2 21.0 20.1  49
2026 09 06 01  02 38 55.934   -08 33 18.65  1.0589 1.8352 125.2 21.0 20.6  49
2026 09 06 02  02 38 57.775   -08 33 40.67  1.0587 1.8352 125.2 21.0 21.0  48
2026 09 06 03  02 38 59.612   -08 34 02.70  1.0584 1.8352 125.2 21.0 21.4  48
2026 09 06 04  02 39 01.446   -08 34 24.75  1.0581 1.8352 125.3 21.0 21.9  48
2026 09 06 05  02 39 03.276   -08 34 46.81  1.0578 1.8351 125.3 21.0 22.3  47
2026 09 06 06  02 39 05.103   -08 35 08.88  1.0575 1.8351 125.3 21.0 22.8  47
2026 09 06 07  02 39 06.926   -08 35 30.97  1.0572 1.8351 125.4 21.0 23.2  47
2026 09 06 08  02 39 08.746   -08 35 53.07  1.0569 1.8350 125.4 21.0 23.7  46
2026 09 06 09  02 39 10.562   -08 36 15.19  1.0567 1.8350 125.4 21.0 24.1  46
2026 09 06 10  02 39 12.375   -08 36 37.32  1.0564 1.8350 125.4 21.0 24.6  46
2026 09 06 11  02 39 14.184   -08 36 59.46  1.0561 1.8349 125.5 21.0 25.1  46
2026 09 06 12  02 39 15.989   -08 37 21.62  1.0558 1.8349 125.5 21.0 25.5  45
2026 09 06 13  02 39 17.791   -08 37 43.79  1.0555 1.8349 125.5 21.0 26.0  45
2026 09 06 14  02 39 19.590   -08 38 05.98  1.0552 1.8349 125.6 21.0 26.5  45
2026 09 06 15  02 39 21.385   -08 38 28.18  1.0550 1.8348 125.6 21.0 26.9  45
2026 09 06 16  02 39 23.176   -08 38 50.39  1.0547 1.8348 125.6 21.0 27.4  44
2026 09 06 17  02 39 24.964   -08 39 12.61  1.0544 1.8348 125.6 21.0 27.9  44
2026 09 06 18  02 39 26.749   -08 39 34.85  1.0541 1.8347 125.7 21.0 28.4  44
2026 09 06 19  02 39 28.530   -08 39 57.11  1.0538 1.8347 125.7 21.0 28.9  44
2026 09 06 20  02 39 30.307   -08 40 19.38  1.0535 1.8347 125.7 21.0 29.3  44
2026 09 06 21  02 39 32.081   -08 40 41.66  1.0533 1.8346 125.8 21.0 29.8  43
2026 09 06 22  02 39 33.851   -08 41 03.95  1.0530 1.8346 125.8 21.0 30.3  43
2026 09 06 23  02 39 35.618   -08 41 26.26  1.0527 1.8346 125.8 21.0 30.8  43
2026 09 07 00  02 39 37.381   -08 41 48.58  1.0524 1.8346 125.8 21.0 31.3  43
2026 09 07 01  02 39 39.141   -08 42 10.92  1.0521 1.8345 125.9 21.0 31.8  43
2026 09 07 02  02 39 40.897   -08 42 33.27  1.0519 1.8345 125.9 21.0 32.3  43
2026 09 07 03  02 39 42.649   -08 42 55.63  1.0516 1.8345 125.9 21.0 32.8  43
2026 09 07 04  02 39 44.398   -08 43 18.00  1.0513 1.8344 126.0 21.0 33.3  42
2026 09 07 05  02 39 46.143   -08 43 40.39  1.0510 1.8344 126.0 21.0 33.8  42
2026 09 07 06  02 39 47.885   -08 44 02.79  1.0507 1.8344 126.0 21.0 34.3  42
2026 09 07 07  02 39 49.623   -08 44 25.21  1.0505 1.8344 126.0 21.0 34.9  42
2026 09 07 08  02 39 51.358   -08 44 47.64  1.0502 1.8343 126.1 21.0 35.4  42
2026 09 07 09  02 39 53.089   -08 45 10.08  1.0499 1.8343 126.1 21.0 35.9  42
2026 09 07 10  02 39 54.817   -08 45 32.53  1.0496 1.8343 126.1 21.0 36.4  42